Date String (YYYY-MM-DD hh:mm:ss) UTC,Instrument flags,absolute air pressure of the measurement (hPa),sample flow rate (lpm),inlet stack bypass flow (lpm),air temperature of the measurement (°C),ambient temperature measured by the external sensor (°C),aerosol sample conditioner tube jacket temperature (°C),OPC LED temperature (°C),internal box temperature (°C),relative humidity of the measurement (%),span deviation,mass concentration of particles derived from Lorenz-Mie calculation of OPC scattering (μg/m³),mass concentration of particles derived from Lorenz-Mie calculation of OPC scattering (μg/m³),mass concentration of particles derived from Lorenz-Mie calculation of OPC scattering (μg/m³)
DateTimeUTC,F1_M11,P_M11,Q1_M11,Q2_M11,T1_M11,T2_M11,T3_M11,T4_M11,T5_M11,U1_M11,ZSPAN_M11,X0_M11,X2_M11,X1_M11
2023-12-01 22:00:00,SystemResetWarning,0818.9,5.01,000.00,021.1,020.2,000.0,029.3,022.4,16.5,0002.9,0023.35,0014.92,0013.53
2023-12-01 22:01:00,SystemResetWarning,0818.8,5.01,000.00,021.1,020.2,000.0,029.3,022.4,16.5,0003.0,0023.40,0014.86,0013.50
2023-12-01 22:02:00,SystemResetWarning,0818.8,5.00,000.00,021.1,020.2,000.0,029.3,022.4,16.5,0003.3,0023.72,0014.85,0013.48
2023-12-01 22:03:00,SystemResetWarning,0818.8,4.99,000.00,021.1,020.2,000.0,029.3,022.4,16.6,0003.2,0022.97,0014.81,0013.46
2023-12-01 22:04:00,SystemResetWarning,0818.9,4.99,000.00,021.1,020.2,000.0,029.3,022.4,16.7,0003.6,0022.99,0014.77,0013.43
2023-12-01 22:05:00,SystemResetWarning,0818.9,4.99,000.00,021.1,020.2,000.0,029.3,022.4,16.7,0003.4,0023.03,0014.80,0013.44
2023-12-01 22:06:00,SystemResetWarning,0818.9,5.00,000.00,021.1,020.2,000.0,029.3,022.4,16.6,0003.3,0023.74,0014.78,0013.44
2023-12-01 22:07:00,SystemResetWarning,0818.8,5.00,000.00,021.1,020.2,000.0,029.3,022.4,16.5,0003.6,0023.52,0014.74,0013.45
2023-12-01 22:08:00,SystemResetWarning,0818.8,5.00,000.00,021.1,020.2,000.0,029.3,022.4,16.5,0003.7,0023.20,0014.73,0013.47
2023-12-01 22:09:00,SystemResetWarning,0818.8,5.01,000.00,021.1,020.2,000.0,029.3,022.4,16.5,0003.5,0022.91,0014.70,0013.48
2023-12-01 22:10:00,SystemResetWarning,0818.9,5.00,000.00,021.1,020.2,000.0,029.4,022.4,16.5,0003.4,0022.74,0014.65,0013.47
2023-12-01 22:11:00,SystemResetWarning,0818.8,5.00,000.00,021.1,020.2,000.0,029.4,022.4,16.4,0003.4,0022.79,0014.65,0013.47
2023-12-01 22:12:00,SystemResetWarning,0818.8,5.00,000.00,021.1,020.2,000.0,029.4,022.4,16.5,0003.5,0022.65,0014.66,0013.48
2023-12-01 22:13:00,SystemResetWarning,0818.8,5.00,000.00,021.1,020.2,000.0,029.4,022.4,16.6,0003.2,0022.19,0014.69,0013.49
2023-12-01 22:14:00,SystemResetWarning,0819.2,5.00,000.00,021.1,020.2,000.0,029.4,022.4,16.6,0002.7,0022.22,0014.71,0013.51
2023-12-01 22:15:00,SystemResetWarning,0819.3,5.00,000.00,021.1,020.2,000.0,029.4,022.5,16.5,0002.5,0022.01,0014.70,0013.52
2023-12-01 22:16:00,SystemResetWarning,0819.2,5.00,000.00,021.1,020.2,000.0,029.4,022.5,16.4,0002.2,0021.11,0014.67,0013.50
2023-12-01 22:17:00,SystemResetWarning,0818.9,5.00,000.00,021.1,020.3,000.0,029.4,022.5,16.4,0002.0,0020.33,0014.70,0013.51
2023-12-01 22:18:00,SystemResetWarning,0819.0,4.99,000.00,021.1,020.3,000.0,029.4,022.5,16.4,0002.0,0020.13,0014.74,0013.51
2023-12-01 22:19:00,SystemResetWarning,0819.0,5.00,000.00,021.2,020.3,000.0,029.4,022.5,16.4,0001.9,0020.29,0014.72,0013.49
2023-12-01 22:20:00,SystemResetWarning,0819.0,5.00,000.00,021.2,020.3,000.0,029.4,022.5,16.4,0002.0,0020.47,0014.71,0013.48
2023-12-01 22:21:00,SystemResetWarning,0819.0,5.01,000.00,021.2,020.3,000.0,029.4,022.5,16.4,0001.8,0020.50,0014.71,0013.48
2023-12-01 22:22:00,SystemResetWarning,0819.0,5.01,000.00,021.2,020.3,000.0,029.4,022.6,16.4,0002.3,0020.40,0014.68,0013.48
2023-12-01 22:23:00,SystemResetWarning,0819.0,5.01,000.00,021.2,020.3,000.0,029.4,022.6,16.4,0002.3,0020.45,0014.70,0013.49
2023-12-01 22:24:00,SystemResetWarning,0819.0,4.99,000.00,021.2,020.3,000.0,029.4,022.6,16.4,0002.6,0020.32,0014.68,0013.49
2023-12-01 22:25:00,SystemResetWarning,0819.0,4.99,000.00,021.2,020.3,000.0,029.4,022.6,16.3,0002.3,0020.40,0014.68,0013.48
2023-12-01 22:26:00,SystemResetWarning,0819.0,5.01,000.00,021.2,020.4,000.0,029.4,022.6,16.2,0001.6,0020.59,0014.71,0013.48
2023-12-01 22:27:00,SystemResetWarning,0819.0,5.01,000.00,021.2,020.4,000.0,029.4,022.6,16.3,0001.4,0021.53,0014.76,0013.51
2023-12-01 22:28:00,SystemResetWarning,0819.0,5.01,000.00,021.3,020.4,000.0,029.4,022.7,16.3,0001.5,0021.74,0014.72,0013.48
2023-12-01 22:29:00,SystemResetWarning,0819.0,5.00,000.00,021.3,020.4,000.0,029.5,022.7,16.3,0001.6,0022.12,0014.67,0013.47
2023-12-01 22:30:00,SystemResetWarning,0819.0,5.00,000.00,021.3,020.4,000.0,029.5,022.7,16.2,0001.7,0022.22,0014.62,0013.47
2023-12-01 22:31:00,SystemResetWarning,0819.0,5.00,000.00,021.3,020.4,000.0,029.5,022.7,16.1,0001.9,0022.32,0014.58,0013.49
2023-12-01 22:32:00,SystemResetWarning,0819.0,5.00,000.00,021.3,020.4,000.0,029.5,022.7,16.2,0002.4,0022.40,0014.59,0013.50
2023-12-01 22:33:00,SystemResetWarning,0819.0,5.00,000.00,021.3,020.4,000.0,029.5,022.6,16.2,0002.2,0023.13,0014.61,0013.51
2023-12-01 22:34:00,SystemResetWarning,0819.1,5.00,000.00,021.3,020.4,000.0,029.5,022.6,16.1,0001.7,0023.84,0014.60,0013.49
2023-12-01 22:35:00,SystemResetWarning,0819.1,5.00,000.00,021.3,020.4,000.0,029.5,022.7,16.1,0001.9,0024.03,0014.57,0013.48
2023-12-01 22:36:00,SystemResetWarning,0819.1,5.00,000.00,021.3,020.4,000.0,029.5,022.7,16.1,0002.7,0024.00,0014.54,0013.47
2023-12-01 22:37:00,SystemResetWarning,0819.2,5.00,000.00,021.3,020.4,000.0,029.5,022.7,16.1,0003.3,0024.09,0014.51,0013.48
2023-12-01 22:38:00,SystemResetWarning,0819.2,5.00,000.00,021.3,020.4,000.0,029.5,022.7,16.0,0003.6,0023.23,0014.45,0013.47
2023-12-01 22:39:00,SystemResetWarning,0819.2,5.00,000.00,021.3,020.5,000.0,029.5,022.7,16.0,0003.8,0022.99,0014.48,0013.50
2023-12-01 22:40:00,SystemResetWarning,0819.2,5.00,000.00,021.3,020.5,000.0,029.5,022.7,16.0,0004.0,0022.43,0014.51,0013.52
2023-12-01 22:41:00,SystemResetWarning,0819.3,5.00,000.00,021.3,020.5,000.0,029.5,022.7,15.9,0004.1,0022.27,0014.57,0013.53
2023-12-01 22:42:00,SystemResetWarning,0819.3,5.00,000.00,021.3,020.5,000.0,029.5,022.7,15.8,0004.2,0022.66,0014.64,0013.55
2023-12-01 22:43:00,SystemResetWarning,0819.4,5.00,000.00,021.3,020.5,000.0,029.6,022.7,15.8,0004.3,0023.16,0014.68,0013.56
2023-12-01 22:44:00,SystemResetWarning,0819.4,5.00,000.00,021.4,020.5,000.0,029.6,022.7,15.8,0004.2,0023.64,0014.70,0013.56
2023-12-01 22:45:00,SystemResetWarning,0819.4,5.00,000.00,021.4,020.5,000.0,029.6,022.8,15.8,0004.1,0023.63,0014.77,0013.59
2023-12-01 22:46:00,SystemResetWarning,0819.5,4.99,000.00,021.4,020.5,000.0,029.6,022.8,15.7,0004.0,0023.37,0014.77,0013.61
2023-12-01 22:47:00,SystemResetWarning,0819.4,5.00,000.00,021.4,020.5,000.0,029.6,022.8,15.8,0003.7,0024.21,0014.84,0013.67
2023-12-01 22:48:00,SystemResetWarning,0819.4,5.00,000.00,021.4,020.5,000.0,029.6,022.8,15.8,0003.6,0024.74,0014.91,0013.73
2023-12-01 22:49:00,SystemResetWarning,0819.4,5.00,000.00,021.4,020.5,000.0,029.6,022.8,15.8,0003.6,0025.37,0015.00,0013.79
2023-12-01 22:50:00,SystemResetWarning,0819.4,5.00,000.00,021.4,020.6,000.0,029.6,022.8,15.8,0003.6,0025.48,0015.04,0013.85
2023-12-01 22:51:00,SystemResetWarning,0819.4,5.00,000.00,021.4,020.6,000.0,029.6,022.8,15.7,0003.3,0025.73,0015.13,0013.91
2023-12-01 22:52:00,SystemResetWarning,0819.5,5.00,000.00,021.5,020.6,000.0,029.6,022.8,15.7,0003.1,0026.92,0015.19,0013.95
2023-12-01 22:53:00,SystemResetWarning,0819.5,5.00,000.00,021.5,020.6,000.0,029.6,022.9,15.7,0002.8,0027.03,0015.19,0013.94
2023-12-01 22:54:00,SystemResetWarning,0819.5,5.00,000.00,021.5,020.6,000.0,029.6,022.9,15.6,0002.2,0027.08,0015.18,0013.95
2023-12-01 22:55:00,SystemResetWarning,0819.5,5.00,000.00,021.5,020.6,000.0,029.6,022.9,15.6,0001.7,0026.43,0015.20,0013.98
2023-12-01 22:56:00,SystemResetWarning,0819.5,5.00,000.00,021.5,020.6,000.0,029.7,022.9,15.6,0001.6,0025.70,0015.19,0013.99
2023-12-01 22:57:00,SystemResetWarning,0819.5,5.00,000.00,021.5,020.6,000.0,029.7,022.9,15.6,0001.6,0025.79,0015.20,0013.99
2023-12-01 22:58:00,SystemResetWarning,0819.8,5.00,000.00,021.5,020.6,000.0,029.7,022.9,15.5,0002.1,0025.18,0015.22,0013.97
2023-12-01 22:59:00,SystemResetWarning,0819.8,5.00,000.00,021.5,020.6,000.0,029.7,022.9,15.4,0002.3,0025.05,0015.21,0013.94
